#timestamp,LO_Frequency,Hit,StdDev 
1570852815.5,286047000.1,N
1570852835.3,286047003.7,N
1570852855.1,286047002.9,N
1570852875.9,286047006.0,Y
1570852895.7,286047004.2,P
1570852915.5,286047004.4,P
1570852935.4,286047003.8,P
1570852955.2,286047004.3,Y
1570852975.1,286046998.6,P
1570852976.0,286046998.6,N
1570852995.8,286047000.2,N
1570853015.6,286047001.7,N
1570853035.5,286047003.9,N
1570853055.3,286047001.4,N
1570853075.2,286047001.3,N
1570853095.9,286047003.8,N
1570853115.7,286047005.3,N
1570853135.6,286047004.6,N
1570853155.4,286047009.2,Y
1570853175.2,286047003.7,P
1570853195.1,286047003.4,P
1570853196.0,286047003.4,P
1570853215.8,286047006.0,Y
1570853235.7,286047000.8,P
1570853255.5,286047000.7,N
1570853275.3,286047002.1,N
1570853295.2,286047003.1,Y
1570853315.0,286047003.5,P
1570853315.9,286047003.5,P
1570853335.8,286047005.5,P
1570853355.6,286047001.7,N
1570853375.4,286047003.3,N
1570853395.3,286047003.0,N
1570853415.1,286047004.9,Y
1570853435.8,286047001.9,P
1570853455.7,286047001.9,N
1570853475.5,286047001.5,N
1570853495.4,286047001.4,N
1570853515.2,286047004.1,Y
1570853535.0,286047002.4,P
1570853535.9,286047002.4,P
1570853555.8,286047002.2,P
1570853575.6,286047002.3,Y
1570853595.5,286047000.8,P
1570853615.3,286046999.9,N
1570853635.1,286047000.4,N
1570853655.9,286047002.1,N
1570853675.7,286047002.3,N
1570853695.5,286047002.0,N
1570853715.4,286047004.0,Y
1570853735.2,286047004.4,P
1570853755.1,286047002.9,N
1570853756.0,286047002.9,N
1570853775.8,286047005.6,Y
1570853795.6,286047002.4,P
1570853815.5,286047003.5,P
1570853835.3,286047004.3,P
1570853855.2,286047003.2,Y
1570853875.9,286047002.8,P
1570853895.7,286047000.9,P
1570853915.6,286047002.3,N
1570853935.4,286047000.1,N
1570853955.3,286046999.0,N
1570853975.1,286047004.4,N
1570853976.0,286047004.4,N
1570853995.8,286047002.1,N
1570854015.7,286047005.5,Y
1570854035.5,286047003.3,P
1570854055.3,286047004.5,P
1570854075.2,286047007.6,P
1570854095.0,286047002.9,N
1570854095.9,286047002.9,N
1570854115.8,286047004.9,N
1570854135.6,286047007.2,Y
1570854155.4,286047002.4,P
1570854175.3,286047001.8,N
1570854195.1,286047004.4,P
1570854215.9,286047003.5,Y
1570854235.7,286047002.5,P
1570854255.5,286047001.6,P
1570854275.4,286047002.0,P
1570854295.2,286047003.7,Y
1570854315.1,286047000.8,P
1570854316.0,286047000.8,N
1570854335.8,286046998.8,N
1570854355.6,286046998.8,N
1570854375.5,286046999.0,N
1570854395.3,286047001.0,N
1570854415.1,286046999.9,N
1570854435.9,286047002.6,N
1570854455.7,286047002.7,N
1570854475.6,286046999.9,N
1570854495.4,286047000.9,N
1570854515.2,286046998.5,N
1570854535.1,286047002.6,N
1570854536.0,286047002.6,N
1570854555.8,286047002.5,N
1570854575.7,286047002.6,N
1570854595.5,286047000.9,N
1570854615.3,286047000.7,N
1570854635.2,286046999.8,N
1570854655.0,286047000.7,N
1570854655.9,286047000.7,N
1570854675.7,286046999.5,N
1570854695.6,286046999.0,N
1570854715.4,286047000.6,N
1570854735.3,286046999.7,N
1570854755.1,286047002.4,N
1570854756.0,286047002.4,N
1570854775.8,286046999.7,N
1570854795.7,286047002.5,N
1570854815.5,286046999.8,N
1570854835.3,286047002.1,N
1570854855.2,286047002.3,N
1570854875.0,286047002.7,N
1570854875.9,286047002.7,N
1570854895.8,286047004.4,Y
1570854915.6,286047001.7,P
1570854935.4,286047001.4,P
1570854955.3,286047002.6,P
1570854975.1,286047002.3,Y
1570854995.9,286047001.2,P
1570855015.7,286046998.5,P
1570855035.5,286047002.6,N
1570855055.4,286047000.7,N
1570855075.2,286046999.2,N
1570855095.0,286046997.2,N
1570855095.9,286046997.2,N
1570855115.8,286046999.4,N
1570855135.6,286046998.1,N
1570855155.5,286046999.3,N
1570855175.3,286046997.7,N
1570855195.1,286046997.1,N
1570855215.9,286046999.3,N
1570855235.7,286046996.5,N
1570855255.5,286046996.5,N
1570855275.4,286046997.2,N
1570855295.2,286046996.9,N
1570855315.1,286046996.7,N
1570855316.0,286046996.7,N
1570855335.8,286046997.6,N
1570855355.6,286046995.4,N
1570855375.5,286046995.1,N
1570855395.3,286046994.8,N
1570855415.2,286046991.8,Y
1570855435.9,286046996.3,P
1570855455.7,286046993.4,P
1570855475.6,286046994.8,N
1570855495.4,286046994.1,Y
1570855515.2,286046996.6,P
1570855535.1,286046996.6,P
1570855536.0,286046996.6,P
1570855555.8,286046999.3,N
1570855575.7,286046999.5,N
1570855595.5,286046999.5,N
1570855615.3,286046996.9,N
1570855635.2,286046999.4,N
1570855655.0,286046997.3,N
1570855655.9,286046997.3,N
1570855675.8,286046995.9,Y
1570855695.6,286046996.5,P
1570855715.4,286046998.5,N
1570855735.3,286046997.9,N
1570855755.1,286046993.6,Y
1570855775.9,286046995.0,P
1570855795.7,286046995.5,P
1570855815.5,286046996.2,P
1570855835.4,286046995.8,Y
1570855855.2,286046998.5,P
1570855875.0,286046998.6,N
1570855875.9,286046998.6,N
1570855895.8,286046999.5,N
1570855915.6,286046999.1,N
1570855935.5,286046997.9,N
1570855955.3,286046999.1,N
1570855975.1,286047001.2,N
1570855995.9,286046995.5,Y
1570856015.7,286046997.8,P
1570856035.5,286046996.9,P
1570856055.4,286046997.2,P
1570856075.2,286046997.2,Y
1570856095.1,286046997.2,P
1570856096.0,286046997.2,P
1570856115.8,286046995.8,P
1570856135.6,286046997.6,Y
1570856155.5,286046998.9,P
1570856175.3,286046996.6,P
1570856195.2,286046999.3,N
1570856215.9,286046997.7,N
1570856235.7,286046995.7,Y
1570856255.6,286046996.9,P
1570856275.4,286046997.5,P
1570856295.3,286046996.5,P
1570856315.1,286046997.1,Y
1570856316.0,286046997.1,P
1570856335.8,286047001.1,P
1570856355.7,286047000.0,N
1570856375.5,286046998.1,N
1570856395.3,286046998.9,N
